[[{"header":{"parameterUnit":"m.s-1","parameterCategory":1,"la1":30.2991,"la2":30.254,"lo1":-89.0895,"lo2":-89.0444,"dy":0.0017,"dx":0.0017,"nx":28,"ny":28,"refTime":"2025-09-14T09:00:00:Z","depth":0,"parameterNumber":2,"parameterNumberName":"U-component_of_WINDS"},"data":[0,0,0,0,0,0,0,0,0,0,0,0,0,0,0,0,0,0,0,0,0,0,0,0,0,0,0,0,0,0,0,0,0,0,0,0,0,0,0,0,0,0,0,0,0,0,0,0,0,0,0,0,0,0,0,0,0,0,-1.9139,-1.9138,0,-1.9117,-1.9116,-1.9116,-1.9065,-1.9064,-1.9062,-1.9061,-1.9041,-1.9042,-1.9042,0,0,0,0,0,0,0,0,0,0,0,0,0,-1.914,-1.914,-1.9139,-1.9138,-1.9138,-1.9117,-1.9116,-1.9116,-1.9065,-1.9064,-1.9062,-1.9061,-1.9041,-1.9042,-1.9042,0,0,0,0,0,0,0,0,0,0,0,0,0,-1.9131,-1.914,-1.9139,-1.911,-1.9107,-1.9117,-1.9116,-1.9116,-1.9065,-1.9063,-1.9062,-1.906,-1.9041,-1.9042,-1.9042,-1.9079,0,0,-1.9045,-1.9045,0,0,0,0,0,0,0,0,-1.9131,-1.9131,-1.9114,-1.9112,-1.9109,-1.9092,-1.9109,-1.9104,-1.9066,-1.9081,-1.9061,-1.906,-1.906,-1.9059,-1.9058,-1.9078,-1.9077,-1.9045,-1.9045,-1.9045,-1.9046,0,0,0,0,0,0,0,-1.9132,-1.9132,-1.913,-1.9114,-1.9111,-1.9099,-1.9096,-1.9108,-1.908,-1.908,-1.9076,-1.9074,-1.9058,-1.9058,-1.9057,-1.9077,-1.9045,-1.9045,-1.9046,-1.9046,-1.9129,-1.9131,0,0,0,0,0,0,-1.9136,-1.9132,-1.9131,-1.9129,-1.9116,-1.9101,-1.9097,-1.9099,-1.9079,-1.9075,-1.9075,-1.9071,-1.9057,-1.9057,-1.9056,-1.91,-1.9045,-1.9046,-1.9046,-1.9127,-1.9129,-1.9131,0,0,0,0,0,0,-1.9137,-1.9137,-1.9131,-1.913,-1.9128,-1.9102,-1.9105,-1.9099,-1.9099,-1.9076,-1.9071,-1.908,-1.9056,-1.9055,-1.9074,-1.9098,-1.9046,-1.9047,-1.9125,-1.9128,-1.913,-1.9185,0,0,0,0,0,0,-1.9137,-1.9137,-1.915,-1.913,-1.9129,-1.9149,-1.9106,-1.91,-1.91,-1.9095,-1.9079,-1.9075,-1.9055,-1.9074,-1.9075,-1.9098,-1.9048,-1.9123,-1.9126,-1.9129,-1.9181,-1.9189,-1.9197,0,0,0,0,0,-1.9137,-1.9166,-1.915,-1.9151,-1.9143,-1.915,-1.9149,-1.9124,-1.9102,-1.9115,-1.9101,-1.9076,-1.9095,-1.9076,-1.9077,-1.9101,-1.9121,-1.9125,-1.9129,-1.9178,-1.9188,-1.9196,0,0,0,0,0,0,-1.9189,-1.9163,-1.9145,-1.9168,-1.9162,-1.9141,-1.9157,-1.9135,-1.9135,-1.913,-1.91,-1.9097,-1.9121,-1.9113,-1.9091,-1.9137,-1.9104,-1.9109,-1.9141,-1.915,-1.9158,-1.9159,-1.9048,0,0,0,0,0,-1.9203,-1.9209,-1.9187,-1.9209,-1.9207,-1.9183,-1.9185,-1.9166,-1.9158,-1.9155,-1.9142,-1.9137,-1.9142,-1.9146,-1.9149,-1.918,-1.9177,-1.9197,-1.9205,-1.9212,-1.9216,-1.9234,-1.9243,-1.9144,-1.9144,-1.9144,0,0,-1.9232,-1.9218,-1.9224,-1.9219,-1.9212,-1.9221,-1.9181,-1.9191,-1.9198,-1.9157,-1.9174,-1.9165,-1.9157,-1.9183,-1.9193,-1.9177,-1.9243,-1.9217,-1.9222,-1.9223,-1.9239,-1.9249,-1.9257,-1.9147,-1.9147,-1.9146,0,0,-1.9289,-1.9279,-1.9298,-1.9292,-1.9281,-1.9265,-1.927,-1.9253,-1.9246,-1.9262,-1.9233,-1.9241,-1.925,-1.9246,-1.9245,-1.9305,-1.9282,-1.9307,-1.9347,-1.9365,-1.9373,-1.9379,-1.9402,-1.941,-1.9311,-1.9311,-1.9311,0,-1.9327,-1.9337,-1.931,-1.9323,-1.9323,-1.9287,-1.9307,-1.9303,-1.9294,-1.9295,-1.9277,-1.9289,-1.928,-1.9306,-1.9321,-1.9321,-1.9327,-1.9308,-1.9374,-1.938,-1.9386,-1.9407,-1.9416,-1.9314,-1.9314,-1.9314,-1.9313,0,-1.9385,-1.9394,-1.941,-1.9403,-1.9404,-1.9421,-1.9398,-1.9403,-1.9386,-1.9372,-1.9392,-1.9381,-1.9382,-1.9387,-1.937,-1.9411,-1.9401,-1.9379,-1.9346,-1.9399,-1.9419,-1.9426,-1.9319,-1.9318,-1.9317,-1.9316,0,0,-1.9473,-1.9452,-1.9458,-1.9456,-1.9443,-1.9449,-1.9465,-1.9466,-1.9472,-1.9469,-1.9482,-1.9492,-1.9472,-1.9471,-1.9454,-1.947,-1.952,-1.9445,-1.9445,-1.946,-1.9567,-1.9584,-1.9594,-1.9505,-1.9506,-1.9507,-1.9568,0,-1.9527,-1.9552,-1.9529,-1.9559,-1.9568,-1.9535,-1.955,-1.9544,-1.9533,-1.954,-1.9528,-1.9536,-1.9508,-1.9508,-1.9522,-1.951,-1.9541,-1.9506,-1.9519,-1.952,-1.9522,-1.9604,-1.9621,-1.9679,-1.9575,-1.9576,-1.9577,0,-1.9594,-1.9593,-1.9624,-1.9611,-1.9614,-1.9627,-1.9628,-1.9634,-1.9629,-1.962,-1.962,-1.9599,-1.9616,-1.9584,-1.9608,-1.9585,-1.959,-1.9585,-1.9587,-1.9587,-1.9552,-1.9607,-1.9696,-1.9705,-1.9589,-1.9588,-1.9587,0,-1.9656,-1.9663,-1.9683,-1.9681,-1.9667,-1.9677,-1.9672,-1.9664,-1.9667,-1.9669,-1.9671,-1.9674,-1.9676,-1.968,-1.9662,-1.964,-1.9689,-1.9655,-1.9684,-1.9684,-1.9695,-1.9694,-1.9787,-1.9697,-1.9697,-1.9697,-1.9697,0,-1.9719,-1.974,-1.9711,-1.9723,-1.9746,-1.9721,-1.9744,-1.9736,-1.973,-1.9742,-1.9714,-1.9726,-1.97,-1.971,-1.9696,-1.9719,-1.972,-1.9715,-1.9711,-1.9717,-1.9718,-1.9719,-1.9715,-1.9699,-1.9699,-1.9698,-1.9698,0,-1.9792,-1.9773,-1.9793,-1.9778,-1.9775,-1.9793,-1.9781,-1.9792,-1.978,-1.9795,-1.9798,-1.9779,-1.9789,-1.9771,-1.9779,-1.977,-1.9803,-1.9792,-1.9804,-1.9802,-1.9831,-1.9829,-1.9928,-1.9941,-1.9843,-1.9844,-1.9845,0,-1.9834,-1.9849,-1.9836,-1.9841,-1.9838,-1.9846,-1.985,-1.9827,-1.9832,-1.9828,-1.9841,-1.9849,-1.9854,-1.9872,-1.986,-1.9867,-1.9857,-1.9892,-1.9858,-1.9865,-1.9859,-1.9859,-1.9861,-1.9899,-1.99,-1.9901,-1.9901,0,-1.991,-1.9901,-1.9906,-1.9909,-1.9914,-1.9915,-1.9914,-1.9921,-1.9897,-1.9904,-1.9914,-1.9918,-1.9927,-1.9936,-1.994,-1.9936,-1.9916,-1.9912,-1.9919,-1.9926,-1.9933,-1.9931,-1.9824,-1.991,-1.9909,-1.9908,-1.9908,-1.9908,-1.9969,-1.9982,-1.9975,-1.9983,-1.998,-1.9981,-1.9992,-1.9982,-1.9989,-1.9994,-1.9981,-1.9995,-1.9992,-1.9995,-1.9994,-2.0006,-1.9991,-2.0001,-2.0003,-2.0006,-2.0012,-1.9931,-2.0007,-2.0006,-2.0006,-2.0006,-2.0006,0,-2.0045,-2.004,-2.0047,-2.0047,-2.0054,-2.0034,-2.0033,-2.004,-2.0052,-2.0051,-2.0057,-2.007,-2.0079,-2.0069,-2.0077,-2.0089,-2.008,-2.0092,-2.0091,-2.0091,-2.0024,-2.0017,-2.0099,-2.0099,-2.0099,-2.0099,-2.0099,-2.0099,-2.0086,-2.0106,-2.0097,-2.0117,-2.0112,-2.0125,-2.0126,-2.0128,-2.0126,-2.0142,-2.0149,-2.0143,-2.0138,-2.0146,-2.0155,-2.0152,-2.0157,-2.0172,-2.0166,-2.0104,-2.0095,-2.0086,-2.008,-2.0173,-2.0173,-2.0232,-2.0232,-2.0233]},{"header":{"parameterUnit":"m.s-1","parameterCategory":1,"la1":30.2991,"la2":30.254,"lo1":-89.0895,"lo2":-89.0444,"dy":0.0017,"dx":0.0017,"nx":28,"ny":28,"refTime":"2025-09-14T09:00:00:Z","depth":0,"parameterNumber":3,"parameterNumberName":"V-component_of_WINDS"},"data":[0,0,0,0,0,0,0,0,0,0,0,0,0,0,0,0,0,0,0,0,0,0,0,0,0,0,0,0,0,0,0,0,0,0,0,0,0,0,0,0,0,0,0,0,0,0,0,0,0,0,0,0,0,0,0,0,0,0,2.9847,2.9847,0,2.9832,2.9832,2.9832,2.9881,2.9882,2.9884,2.9885,2.9863,2.9861,2.986,0,0,0,0,0,0,0,0,0,0,0,0,0,2.9912,2.9911,2.9847,2.9847,2.9847,2.9832,2.9832,2.9832,2.9881,2.9882,2.9884,2.9886,2.9864,2.9862,2.9859,0,0,0,0,0,0,0,0,0,0,0,0,0,2.9889,2.991,2.9847,2.987,2.9871,2.9832,2.9832,2.9832,2.988,2.9883,2.9885,2.9887,2.9865,2.9862,2.9859,2.9796,0,0,2.985,2.9849,0,0,0,0,0,0,0,0,2.989,2.9887,2.9866,2.9868,2.987,2.9861,2.9847,2.9819,2.988,2.9877,2.9885,2.9888,2.986,2.9858,2.985,2.9795,2.9794,2.985,2.9848,2.9847,2.9846,0,0,0,0,0,0,0,2.9892,2.9888,2.9841,2.9866,2.9868,2.9879,2.9878,2.9842,2.9856,2.9877,2.9881,2.9879,2.9862,2.9853,2.985,2.9793,2.985,2.9847,2.9845,2.9844,2.9684,2.9682,0,0,0,0,0,0,2.9891,2.9889,2.9842,2.9841,2.9886,2.9876,2.9875,2.9861,2.9856,2.9858,2.9877,2.9881,2.9857,2.9853,2.9849,2.9773,2.9847,2.9844,2.9842,2.9687,2.9684,2.9681,0,0,0,0,0,0,2.9893,2.9887,2.9842,2.9866,2.9861,2.9872,2.9857,2.986,2.9851,2.9856,2.9858,2.9865,2.9858,2.9853,2.9809,2.9773,2.9843,2.984,2.9689,2.9686,2.9682,2.9621,0,0,0,0,0,0,2.9894,2.9887,2.9864,2.9865,2.9859,2.9803,2.9855,2.9858,2.9847,2.9852,2.9846,2.9847,2.986,2.9813,2.9806,2.977,2.9837,2.9693,2.9688,2.9683,2.9626,2.9616,2.9607,0,0,0,0,0,2.9896,2.9846,2.9863,2.9857,2.9831,2.9801,2.9798,2.9815,2.9844,2.982,2.9823,2.9847,2.9779,2.9808,2.98,2.9763,2.9695,2.9689,2.9684,2.9631,2.9618,2.9607,0,0,0,0,0,0,2.9839,2.9847,2.9865,2.9814,2.9807,2.981,2.978,2.9801,2.9784,2.979,2.981,2.9808,2.9759,2.9758,2.979,2.9701,2.9741,2.9734,2.9704,2.9692,2.9682,2.9682,2.9835,0,0,0,0,0,2.9821,2.9797,2.9805,2.9759,2.9755,2.9768,2.9756,2.977,2.9763,2.9759,2.9759,2.9749,2.9725,2.9709,2.9688,2.9628,2.9626,2.9599,2.9589,2.9581,2.9573,2.9539,2.9527,2.9663,2.9663,2.9663,0,0,2.9782,2.9783,2.9767,2.9748,2.9744,2.9717,2.9765,2.9735,2.9715,2.9754,2.9712,2.9712,2.9702,2.9649,2.9626,2.9646,2.9536,2.9574,2.9567,2.9564,2.9532,2.9519,2.9508,2.9659,2.966,2.966,0,0,2.9697,2.9697,2.9658,2.9654,2.9648,2.9658,2.9648,2.9648,2.965,2.9609,2.9638,2.9613,2.9573,2.9564,2.9554,2.9468,2.9488,2.946,2.9408,2.9375,2.9364,2.9354,2.9321,2.9309,2.9453,2.9453,2.9453,0,2.9648,2.9611,2.9635,2.9603,2.9593,2.963,2.959,2.9584,2.957,2.9561,2.9585,2.9535,2.9531,2.9476,2.9455,2.9447,2.9435,2.9459,2.9364,2.9355,2.9346,2.9314,2.9302,2.9449,2.945,2.945,2.945,0,2.9551,2.9525,2.9494,2.9482,2.9469,2.9433,2.9449,2.9433,2.9449,2.9455,2.9412,2.9409,2.9387,2.9376,2.939,2.9322,2.9335,2.9361,2.9401,2.9329,2.9299,2.9288,2.9444,2.9445,2.9447,2.9447,0,0,2.9426,2.9429,2.9417,2.9412,2.941,2.9389,2.9354,2.9335,2.9319,2.931,2.9279,2.9245,2.9269,2.9258,2.9272,2.9244,2.9172,2.9273,2.9273,2.9252,2.9094,2.9072,2.9058,2.9188,2.9186,2.9184,2.9094,0,2.934,2.9283,2.9303,2.9243,2.9218,2.9254,2.9224,2.9218,2.9223,2.9201,2.9207,2.9181,2.9217,2.921,2.9184,2.9187,2.914,2.9194,2.9156,2.9155,2.9154,2.9043,2.9019,2.8935,2.9083,2.9081,2.908,0,2.9232,2.922,2.9157,2.9159,2.9149,2.9122,2.9105,2.9085,2.9079,2.9085,2.9073,2.9094,2.9058,2.9101,2.905,2.9086,2.9073,2.9072,2.9069,2.9063,2.911,2.9031,2.8908,2.8894,2.9062,2.9064,2.9065,0,2.9143,2.9112,2.907,2.9065,2.9066,2.9046,2.9045,2.9041,2.9028,2.9014,2.9005,2.8987,2.8975,2.8959,2.8973,2.9004,2.8919,2.8964,2.892,2.892,2.8898,2.8898,2.8768,2.8894,2.8895,2.8895,2.8895,0,2.9044,2.9003,2.903,2.9004,2.896,2.8984,2.8939,2.8942,2.8939,2.8913,2.8943,2.8917,2.8939,2.8915,2.8926,2.8881,2.8876,2.8878,2.888,2.8873,2.8872,2.8861,2.8866,2.8892,2.8892,2.8893,2.8894,0,2.8936,2.8953,2.8909,2.8915,2.8916,2.8882,2.8886,2.8862,2.8871,2.8837,2.883,2.8843,2.8816,2.883,2.8801,2.8808,2.8749,2.8762,2.8752,2.8753,2.8708,2.8711,2.8563,2.8544,2.8686,2.8685,2.8684,0,2.8869,2.884,2.8843,2.8829,2.8826,2.8803,2.879,2.8813,2.8799,2.879,2.8765,2.8742,2.8723,2.8678,2.8683,2.8662,2.8671,2.8621,2.8668,2.8661,2.8667,2.8667,2.8663,2.861,2.8609,2.8608,2.8606,0,2.8749,2.8759,2.8741,2.8725,2.871,2.8699,2.8689,2.8676,2.8699,2.868,2.8654,2.864,2.8613,2.8587,2.8569,2.8566,2.8588,2.8593,2.8581,2.8571,2.8565,2.8565,2.8722,2.8595,2.8596,2.8597,2.8597,2.8598,2.8657,2.8632,2.8631,2.8609,2.8605,2.8596,2.8573,2.858,2.8559,2.8539,2.8554,2.8523,2.8517,2.8494,2.8489,2.8463,2.8482,2.8466,2.8461,2.8456,2.8448,2.8573,2.846,2.846,2.846,2.8461,2.8461,0,2.8536,2.8537,2.8518,2.8505,2.8487,2.8515,2.8506,2.8488,2.8461,2.8455,2.8437,2.8406,2.8383,2.8387,2.8365,2.8343,2.8353,2.8336,2.8336,2.8335,2.8433,2.8444,2.8329,2.8329,2.8329,2.8329,2.8329,2.8329,2.847,2.8428,2.8438,2.8394,2.8396,2.8367,2.8359,2.835,2.8345,2.831,2.8291,2.8295,2.8293,2.8271,2.8249,2.8251,2.824,2.8219,2.8224,2.8315,2.8328,2.834,2.8351,2.8217,2.8217,2.8127,2.8126,2.8125]}]]